Flag for Germany Weather past 2 weeks in Kiel, Schleswig-Holstein, Germany

Now
49 °F

Low clouds.


Feels Like: 46 °F
Forecast: 38 / 44 °F
Wind: 6 mph from Southwest

Location: Kiel-Holtenau

Current Time: Mar 29, 2015 at 3:42:53 AM

Latest Report: Mar 29, 2015 at 3:00 AM


Visibility: 5 mi

Pressure: 29.50 "Hg

Humidity: 99%

Dew point: 48 °F

Location of KielLocation

Historic Weather in Kiel — Graph

°F

Kiel temperature yesterday

Maximum temperature yesterday: 50 °F (at 1:00 PM)
Minimum temperature yesterday: 38 °F (at 1:00 AM)
Average temperature yesterday: 44 °F

Past Weeks' High & Low Weather Summary

 TemperatureHumidityPressure
High54 °F (Mar 18, 1:00 PM)100% (Mar 20, 10:00 AM)30.55 "Hg (Mar 20, 10:00 AM)
Low29 °F (Mar 20, 4:00 AM)39% (Mar 19, 12:00 PM)29.56 "Hg (Mar 29, 1:00 AM)
Average42 °F79%30.15 "Hg
* Reported Mar 14 1:00 AM — Mar 29 1:00 AM, Kiel, Weather by CustomWeather, © 2015

Note: Actual official high and low records may vary slightly from our data, if they occured in-between our weather recording intervals... More about our weather records

Advertising

Kiel weather history for previous 24 hours

 ConditionsComfort  
Time TempWeatherWind HumidityBarometerVisibility
1:00 AM
Sun, Mar 29
47 °FLight freezing rain. Low clouds.6 mph99%29.56 "Hg3 mi
12:00 AM47 °FLight freezing rain. Low clouds.6 mph99%29.59 "Hg2 mi
11:00 PM
Sat, Mar 28
46 °FDrizzle. Low clouds.6 mph98%29.63 "Hg2 mi
10:00 PM45 °FLight rain. Low clouds.7 mph96%29.68 "Hg2 mi
9:00 PM45 °FDrizzle. Overcast.7 mph86%29.72 "Hg4 mi
8:00 PM47 °FDrizzle. Overcast.7 mph74%29.75 "Hg6 mi
7:00 PM47 °FOvercast.5 mph71%29.79 "Hg7 mi
6:00 PM47 °FLight rain. Overcast.6 mph67%29.81 "Hg8 mi
5:00 PM49 °FOvercast.6 mph53%29.85 "Hg25 mi
4:00 PM49 °FPartly sunny.6 mph50%29.89 "Hg22 mi
3:00 PM49 °FOvercast.6 mph51%29.93 "Hg25 mi
2:00 PM48 °FOvercast.6 mph54%29.96 "Hg28 mi
1:00 PM50 °FPartly sunny.6 mph50%30.00 "Hg17 mi
12:00 PM48 °FOvercast.3 mph61%30.03 "Hg17 mi
11:00 AM44 °FOvercast.3 mph73%30.06 "Hg25 mi
10:00 AM44 °FOvercast.5 mph77%30.08 "Hg19 mi
9:00 AM43 °FLow clouds.2 mph89%30.09 "Hg7 mi
8:00 AM41 °FOvercast.2 mph89%30.11 "Hg8 mi
7:00 AM40 °FOvercast.2 mph91%30.11 "Hg8 mi
6:00 AM40 °FLow clouds.2 mph95%30.11 "Hg5 mi
5:00 AM40 °FOvercast.2 mph96%30.11 "Hg7 mi
4:00 AM39 °FOvercast.2 mph96%30.11 "Hg8 mi
3:00 AM39 °FOvercast.2 mph93%30.12 "Hg10 mi
Weather by CustomWeather, © 2015

See weather overviewHow to use our weather pages